Theta_e
314 314 315 315 316 315 316 315 317 316 314 314 313 310 308 306 307 310 313 318 318 317 317 319 320 319 318 317 314 313 311 308 305 305 304 303 302 302 301 301 298 297 297 295
318 316 315 318 316 314 314 315 314 314 314 311 310 310 310 310 312 314 315 314 314 316 315 316 316 313 313 313 311 309 308 306 305 304 303 303 303 300 298 296 295 295 296 295
318 313 315 315 315 314 314 313 314 315 313 309 311 311 310 309 310 311 310 309 311 311 311 313 312 311 309 308 307 307 306 305 304 303 300 298 298 296 295 296 298 298 296 296
311 311 314 316 313 313 313 312 310 308 310 309 309 308 306 304 308 304 302 301 301 303 303 304 306 306 306 305 304 302 300 299 298 297 296 296 298 299 299 299 298 296 294 293
314 314 313 314 311 311 312 311 309 308 309 309 309 309 307 301 299 298 297 296 295 296 297 299 299 299 300 298 297 297 296 295 296 298 299 299 299 298 299 296 294 293 293 292
308 312 313 312 312 308 309 311 309 309 310 310 309 309 308 299 297 295 295 295 294 294 295 295 295 296 296 295 295 295 296 297 298 298 299 299 298 295 293 293 292 292 292 291
305 310 313 312 311 309 312 312 308 309 309 309 309 305 299 296 295 294 294 294 294 295 294 295 295 296 296 296 297 297 298 299 299 298 296 294 293 292 292 291 291 291 291 291
308 309 318 310 309 311 309 309 308 309 308 308 301 298 297 296 294 294 293 294 294 294 294 295 296 296 297 297 297 296 295 294 293 293 292 291 291 290 290 290 290 290 290 290
316 316 312 310 310 309 307 309 309 309 307 303 300 298 297 295 294 293 293 293 293 293 293 294 295 294 293 293 292 292 291 291 290 290 290 290 289 289 289 289 289 288 288 288
314 315 314 313 309 308 309 309 308 307 303 301 299 297 296 294 294 293 292 293 293 293 292 291 291 291 290 291 291 290 290 290 290 290 289 289 289 289 288 288 288 287 287 287
313 313 312 311 306 305 303 303 302 300 300 299 297 296 295 294 293 292 292 293 293 291 289 289 289 289 289 289 290 289 288 287 286 285 284 284 283 284 284 284 285 286 286 286
314 314 313 311 304 303 303 301 300 299 297 296 296 295 293 292 292 292 292 291 289 289 288 287 287 286 286 286 286 285 284 282 281 280 280 281 282 282 281 281 282 282 283 283
314 311 305 303 300 300 300 298 298 297 296 295 294 293 292 291 290 290 290 289 288 287 286 284 283 283 283 282 281 280 279 279 279 279 279 280 279 279 279 279 280 280 281 281
304 304 303 303 301 297 297 296 295 293 293 292 291 291 290 289 289 289 288 287 286 284 283 282 281 281 280 279 278 278 278 278 277 277 278 278 278 278 278 279 279 280 278 278
302 301 302 298 296 295 294 294 293 292 291 290 290 289 289 288 287 286 286 285 283 282 281 280 279 278 277 277 277 277 276 276 276 276 277 277 277 276 276 277 278 276 276 276
299 298 298 296 295 295 294 293 292 291 290 290 289 288 286 285 285 286 285 284 282 280 279 278 277 276 276 276 276 275 275 275 274 274 274 274 273 274 275 276 274 274 274 273
298 297 296 296 295 294 293 292 291 291 291 290 287 285 285 285 284 282 281 280 279 279 277 276 275 275 274 274 274 274 273 273 272 272 271 271 271 271 271 271 271 271 271 271
299 297 297 295 294 292 291 291 290 290 289 287 285 284 284 284 283 281 279 278 278 277 276 275 274 273 273 272 272 271 271 271 270 270 269 269 269 269 269 268 268 268 267 268
298 296 295 294 292 291 290 289 288 286 284 284 283 282 283 282 281 279 278 277 277 277 275 274 273 272 271 271 270 270 269 269 269 268 267 267 267 267 266 266 266 266 266 266
296 295 292 291 290 289 288 286 285 284 282 282 282 281 281 280 279 278 277 276 275 276 275 273 272 271 270 270 269 268 268 267 267 266 266 265 265 265 264 264 264 264 264 264
292 291 290 289 287 286 285 283 283 282 281 281 281 280 280 279 279 278 277 276 275 274 274 272 272 271 270 269 268 268 267 266 265 265 264 264 263 263 263 263 263 263 263 263
289 288 286 286 284 283 282 281 281 280 280 280 279 279 279 277 277 276 276 275 274 273 273 272 271 270 269 268 268 267 266 265 265 264 264 263 262 262 262 262 262 262 261 262
287 286 285 284 283 281 280 279 279 279 279 279 278 278 278 277 277 276 276 274 273 273 272 271 270 270 269 268 267 266 266 265 264 263 263 262 262 261 261 261 261 261 261 261
286 285 283 282 281 281 280 279 279 278 278 278 278 278 277 276 275 274 274 273 272 272 271 270 269 268 267 267 266 266 265 264 263 263 262 262 261 261 261 261 261 261 260 260
284 283 282 282 282 281 280 279 277 277 276 276 276 277 276 275 275 274 273 272 271 270 269 269 268 267 266 266 265 265 264 264 263 262 262 261 261 260 260 260 260 260 260 260
284 283 282 281 280 280 279 279 278 276 275 274 274 275 275 274 273 272 271 270 269 269 268 268 267 266 265 265 264 264 264 263 263 262 261 261 260 260 260 260 260 260 260 260
279 279 278 276 276 277 277 277 276 274 274 274 274 274 273 273 272 271 270 269 268 267 266 266 266 265 265 264 264 263 263 262 262 261 261 260 260 259 259 259 259 259 259 260
Wind_Speed
5 4 5 6 5 8 7 6 7 7 8 8 6 6 7 7 6 4 7 6 6 5 5 7 9 12 13 13 14 17 19 19 19 22 23 26 25 19 16 12 11 9 10 12
3 2 2 3 3 8 6 3 5 4 6 6 0 1 5 6 6 7 7 8 6 4 4 6 9 14 12 10 10 12 16 18 21 22 21 19 16 16 15 12 11 9 12 13
5 2 5 4 8 6 5 5 6 7 10 6 3 4 2 5 6 7 7 7 8 8 8 8 9 10 13 16 18 19 20 19 19 18 18 20 18 15 15 10 7 14 15 16
3 2 1 6 1 5 8 5 4 4 2 4 6 5 6 6 5 7 8 9 8 9 14 17 18 20 20 20 21 22 21 21 21 25 26 20 10 4 8 11 12 14 12 12
5 4 4 3 5 8 8 9 6 6 6 6 7 5 6 6 8 6 5 6 10 16 20 22 22 23 27 26 25 27 27 30 27 18 10 6 5 9 16 13 11 11 13 15
3 5 8 8 5 6 5 6 8 9 9 9 6 3 3 4 4 6 11 14 16 20 23 25 23 25 31 27 29 27 25 17 12 10 10 12 14 9 9 10 12 15 18 20
3 3 7 6 3 5 6 8 8 11 11 9 5 2 7 7 8 11 14 17 22 25 24 24 25 32 29 26 22 16 10 7 7 7 4 4 6 8 12 16 17 18 20 22
3 3 6 8 5 9 7 1 6 6 8 6 9 9 9 8 8 10 13 18 21 23 24 21 23 26 22 19 12 10 8 6 5 3 5 8 11 14 15 17 19 21 24 28
9 7 3 5 4 1 4 5 6 8 6 12 13 6 8 9 9 10 16 18 22 24 26 24 21 20 20 13 11 10 9 8 8 9 10 11 13 16 17 20 24 27 27 29
4 5 5 3 3 1 1 4 6 5 12 11 12 12 12 11 9 11 16 20 22 22 21 20 20 19 16 12 9 9 11 11 11 12 14 14 15 17 19 21 24 24 22 23
3 3 2 5 4 4 5 7 12 9 6 12 16 12 13 11 9 14 17 20 20 21 20 18 20 21 18 17 13 14 14 14 15 17 18 21 21 21 22 23 21 24 24 25
6 7 4 4 9 7 9 7 8 15 10 8 11 14 13 10 14 16 17 19 21 20 22 19 20 19 18 16 15 15 15 16 18 19 21 21 20 21 20 20 22 23 25 27
4 9 4 10 8 4 10 9 10 11 13 15 15 20 19 14 15 21 19 19 19 19 20 18 18 17 16 15 15 16 16 16 18 20 19 18 20 20 25 27 22 23 25 29
13 14 7 4 6 9 14 13 20 19 18 19 21 22 23 19 20 18 17 18 19 19 18 15 15 15 15 15 15 15 15 15 17 18 18 19 19 18 19 22 27 28 30 31
3 5 8 16 15 14 16 17 16 14 13 15 20 21 21 18 16 16 17 17 19 18 16 14 14 14 14 14 14 14 15 15 17 17 16 16 17 17 19 19 19 23 29 34
11 13 15 16 16 15 15 14 17 14 13 16 18 18 19 22 21 20 18 14 14 14 13 13 13 12 12 13 12 12 13 13 16 16 16 17 18 16 18 19 18 21 22 26
17 10 15 15 15 13 13 12 14 14 17 18 19 22 22 20 19 18 17 17 16 15 12 12 11 10 10 11 10 10 13 11 16 16 17 17 18 16 17 18 19 19 21 24
10 10 9 14 16 16 14 12 18 20 17 21 22 23 20 16 16 16 16 15 14 13 10 9 10 8 9 10 9 11 12 13 15 15 16 17 16 17 15 20 19 20 23 24
12 15 15 14 18 15 14 16 16 21 23 24 23 17 18 19 18 15 14 13 11 9 6 7 7 8 9 11 12 12 12 13 14 14 14 15 17 17 16 21 20 22 25 23
16 21 22 20 21 23 19 21 23 20 20 25 24 21 18 18 18 16 11 11 8 6 3 5 6 7 10 11 12 13 13 13 13 13 14 15 17 18 17 21 20 23 24 24
15 17 18 20 20 20 22 23 24 20 19 22 21 18 18 17 14 13 10 8 4 4 2 4 6 7 9 11 11 12 12 13 13 13 14 16 18 19 20 22 22 22 24 24
15 14 18 22 21 20 19 21 23 24 22 20 20 20 20 15 13 10 7 6 3 2 1 3 5 7 9 10 11 11 10 11 13 12 12 15 18 20 21 22 22 23 24 24
18 20 21 20 20 20 20 21 22 22 21 19 17 15 12 11 8 8 7 3 1 1 3 5 7 7 9 10 11 10 9 10 12 12 13 16 19 20 21 21 22 22 23 25
22 21 21 22 23 22 18 15 16 17 17 14 11 10 11 11 7 4 4 3 1 2 5 8 7 7 9 10 10 10 9 10 12 13 14 16 19 21 21 22 22 23 23 24
21 20 19 18 16 14 17 15 16 13 12 10 8 6 6 5 2 6 3 0 2 5 7 8 7 8 9 10 11 11 11 11 13 15 16 18 21 23 23 23 23 23 24 25
18 16 17 17 15 14 13 13 11 10 9 8 5 4 4 3 4 4 1 3 5 7 8 8 8 9 9 11 12 12 11 12 14 16 17 19 22 24 24 23 24 24 24 26
20 19 18 19 18 15 13 11 10 8 6 4 2 2 5 5 3 2 3 5 6 8 8 8 9 9 11 12 13 12 11 14 16 17 18 21 23 24 24 23 24 23 24 24
Wind_Direction
239 217 183 200 180 175 183 200 174 240 199 259 266 279 289 287 316 296 265 244 227 217 169 160 167 187 199 199 191 195 184 176 166 178 175 169 173 175 167 173 165 179 193 214
160 75 25 250 241 190 214 186 253 242 250 222 23 54 16 16 68 61 47 26 344 342 80 139 162 152 165 177 172 178 160 155 162 166 167 169 169 158 143 165 161 177 239 247
225 35 97 359 230 205 218 199 177 207 222 166 132 111 32 32 47 58 49 34 35 37 46 90 132 147 139 144 151 149 144 147 149 152 152 146 140 139 133 144 238 255 262 279
172 55 176 237 211 230 219 239 236 282 239 170 139 105 60 15 68 52 37 31 26 37 61 82 102 112 120 125 123 121 116 121 126 122 114 112 105 51 316 290 265 271 266 267
144 186 284 253 207 166 178 255 188 187 148 143 146 123 46 27 45 57 53 51 59 70 78 87 94 109 112 104 104 99 99 105 108 101 81 40 348 325 306 288 272 273 277 279
139 151 208 230 232 143 102 271 184 154 167 161 162 135 194 95 79 78 71 66 71 76 83 90 95 107 99 95 100 100 103 92 68 48 12 325 305 298 284 284 289 289 283 282
129 203 286 248 179 137 127 241 173 168 169 160 170 161 124 117 82 80 84 85 90 87 87 98 109 108 98 97 95 99 86 49 346 322 329 301 293 295 296 297 296 295 293 295
88 68 272 169 92 168 212 334 153 142 151 124 117 113 109 107 100 95 90 87 90 89 87 94 107 108 100 94 95 84 75 73 68 33 339 322 315 314 311 307 305 305 305 302
180 211 214 222 202 243 172 159 166 134 139 135 133 132 126 118 104 97 101 98 96 93 89 90 91 94 90 83 78 73 67 49 24 4 353 343 330 323 320 318 313 311 308 303
108 210 220 242 270 240 124 142 126 114 139 145 129 133 124 119 115 109 105 102 104 94 84 78 87 83 77 71 62 57 48 34 20 9 356 351 344 337 330 328 324 317 307 300
278 269 291 238 225 162 102 96 99 80 101 128 126 127 127 122 116 112 107 104 99 96 91 81 83 73 64 58 53 52 41 26 14 4 355 345 339 336 331 326 323 315 308 306
217 200 176 196 147 136 121 112 115 118 103 96 124 127 124 112 113 110 103 103 96 94 94 87 83 71 59 49 40 35 26 14 7 0 356 352 345 336 334 326 322 318 314 312
201 138 64 114 99 78 112 110 103 106 119 120 117 120 115 110 104 104 99 96 93 96 98 90 77 66 54 42 33 29 24 12 6 4 359 353 347 342 335 334 331 331 334 326
119 111 76 183 148 116 112 107 102 99 104 112 114 110 110 105 103 100 98 106 105 103 95 85 73 60 37 30 26 24 21 21 13 7 1 357 352 345 341 337 333 334 343 349
48 41 115 115 112 114 117 121 110 111 113 106 110 112 113 109 105 109 117 112 113 99 87 78 63 44 25 23 25 22 19 14 8 9 8 357 348 341 336 330 342 338 339 342
97 105 115 118 123 126 125 124 118 121 117 116 112 107 107 110 113 114 118 125 108 89 82 71 53 33 24 21 20 19 16 14 11 10 1 1 354 352 347 351 350 342 341 340
116 125 127 127 132 131 130 127 126 128 126 121 118 118 115 112 107 105 105 107 102 95 78 58 47 33 27 21 23 14 12 10 8 7 3 358 357 351 349 351 342 339 334 337
108 118 126 134 137 132 126 121 122 122 119 123 125 127 125 124 123 121 121 116 103 89 69 53 42 38 30 22 22 15 11 6 5 3 356 356 356 351 350 347 343 338 336 339
121 121 123 122 121 114 111 109 105 112 119 127 125 115 120 122 125 128 128 112 99 96 72 44 34 31 30 20 15 13 10 1 2 0 357 355 355 354 350 347 341 342 345 340
107 108 108 108 114 120 117 118 119 113 121 129 125 122 119 130 135 132 125 99 88 96 87 40 23 23 20 13 9 12 8 6 3 358 360 358 357 352 348 347 345 342 344 342
108 108 112 112 108 108 114 122 122 120 128 135 130 128 132 138 139 133 122 115 98 102 64 14 9 11 7 5 360 360 358 359 358 352 356 357 354 352 347 346 346 344 341 339
113 111 108 107 107 105 106 113 120 125 129 130 129 132 135 133 131 121 111 120 123 98 3 350 347 347 349 349 346 344 343 347 349 343 342 348 350 348 344 343 341 340 338 338
106 105 104 107 109 105 103 113 124 129 129 131 132 136 137 143 145 143 142 141 127 346 330 333 329 326 331 333 331 329 326 334 344 343 337 341 343 342 341 338 335 336 333 335
105 103 99 104 107 105 107 113 113 121 122 122 125 137 144 139 126 132 140 156 298 317 322 321 312 312 320 324 321 317 313 324 336 340 336 337 340 341 339 337 334 334 331 331
97 102 107 110 110 112 120 124 119 119 119 117 121 139 176 182 215 173 171 183 329 321 317 310 296 304 316 323 318 315 304 314 327 331 329 332 337 339 338 335 334 332 330 330
94 90 88 88 95 103 114 127 117 134 132 120 104 123 158 161 149 158 188 326 328 325 319 299 293 300 312 320 322 321 305 309 319 322 321 325 331 335 334 333 332 331 331 331
79 82 83 75 78 92 97 104 120 115 115 109 98 165 190 191 201 248 305 322 329 327 320 298 298 304 306 314 319 321 312 311 313 314 314 320 326 331 331 330 330 330 331 332